Dates,tax-incentives_eng,tax-incentives_sp
2021-01-06,1,0
2021-01-07,0,0
2021-01-08,1,0
2021-01-09,0,0
2021-01-10,1,0
2021-01-11,2,0
2021-01-12,2,0
2021-01-13,0,0
2021-01-14,1,0
2021-01-15,0,0
2021-01-16,1,0
2021-01-17,1,0
2021-01-18,0,0
2021-01-19,1,0
2021-01-20,1,0
2021-01-21,0,0
2021-01-22,0,0
2021-01-23,1,0
2021-01-24,0,0
2021-01-25,1,0
2021-01-26,0,0
2021-01-27,0,0
2021-01-28,1,0
2021-01-29,0,0
2021-01-30,1,0
2021-01-31,2,0
2021-02-01,0,0
2021-02-02,0,0
2021-02-03,2,0
2021-02-04,1,0
2021-02-05,1,0
2021-02-06,0,0
2021-02-07,0,0
2021-02-08,0,0
2021-02-09,2,0
2021-02-10,0,0
2021-02-11,1,0
2021-02-12,2,0
2021-02-13,1,0
2021-02-14,1,0
2021-02-15,1,0
2021-02-16,1,0
2021-02-17,0,0
2021-02-18,0,0
2021-02-19,0,0
2021-02-20,0,0
2021-02-21,2,0
2021-02-22,1,0
2021-02-23,1,0
2021-02-24,1,0
2021-02-25,1,0
2021-02-26,0,0
2021-02-27,1,0
2021-02-28,1,0
2021-03-01,0,0
2021-03-02,2,0
2021-03-03,1,0
2021-03-04,0,0
2021-03-05,2,0
2021-03-06,2,0
2021-03-07,1,0
2021-03-08,1,0
2021-03-09,2,0
2021-03-10,1,0
2021-03-11,2,0
2021-03-12,2,0
2021-03-13,1,0
2021-03-14,0,0
2021-03-15,1,0
2021-03-16,0,0
2021-03-17,2,0
2021-03-18,0,0
2021-03-19,1,0
2021-03-20,0,0
2021-03-21,0,0
2021-03-22,1,0
2021-03-23,0,0
2021-03-24,0,0
2021-03-25,1,0
2021-03-26,2,0
2021-03-27,1,0
2021-03-28,0,0
2021-03-29,1,0
2021-03-30,1,0
2021-03-31,1,0
2021-04-01,0,0
2021-04-02,2,0
2021-04-03,0,0
2021-04-04,1,0
2021-04-05,0,0
2021-04-06,0,0
2021-04-07,0,0
2021-04-08,0,0
2021-04-09,0,0
2021-04-10,0,0
2021-04-11,0,0
2021-04-12,0,0
2021-04-13,0,0
2021-04-14,0,0
2021-04-15,0,0
2021-04-16,0,0
2021-04-17,0,0
2021-04-18,0,0
2021-04-19,0,0
2021-04-20,0,0
2021-04-21,0,0
2021-04-22,0,0
2021-04-23,0,0
2021-04-24,0,0
2021-04-25,0,0
2021-04-26,0,0
2021-04-27,0,0
2021-04-28,0,0
2021-04-29,0,0
2021-04-30,0,1
2021-05-01,0,0
2021-05-02,0,0
2021-05-03,0,0
2021-05-04,0,0
2021-05-05,0,0
2021-05-06,0,0
2021-05-07,0,0
2021-05-08,0,0
2021-05-09,0,0
2021-05-10,0,0
2021-05-11,0,0
2021-05-12,0,0
2021-05-13,0,0
2021-05-14,0,0
2021-05-15,0,0
2021-05-16,0,0
2021-05-17,0,0
2021-05-18,0,0
2021-05-19,0,0
2021-05-20,0,0
2021-05-21,0,0
2021-05-22,0,0
2021-05-23,0,0
2021-05-24,0,0
2021-05-25,0,0
2021-05-26,0,0
2021-05-27,0,0
2021-05-28,0,0
2021-05-29,0,0
2021-05-30,0,0
2021-05-31,0,0
2021-06-01,0,0
2021-06-02,0,0
2021-06-03,0,0
2021-06-04,0,0
2021-06-05,0,0
2021-06-06,0,0
2021-06-07,0,0
2021-06-08,0,0
2021-06-09,0,0
2021-06-10,0,0
2021-06-11,0,0
2021-06-12,0,0
2021-06-13,0,0
2021-06-14,0,0
2021-06-15,0,0
2021-06-16,0,0
2021-06-17,0,0
2021-06-18,0,0
2021-06-19,0,0
2021-06-20,0,0
2021-06-21,0,0
2021-06-22,0,0
2021-06-23,0,0
2021-06-24,0,0
2021-06-25,0,0
2021-06-26,0,0
2021-06-27,0,0
2021-06-28,0,0
2021-06-29,0,0
2021-06-30,0,0
2021-07-01,0,0
2021-07-02,0,0
2021-07-03,0,0
2021-07-04,0,0
2021-07-05,0,0
2021-07-06,0,0
2021-07-07,0,0
2021-07-08,0,0
2021-07-09,0,0
2021-07-10,0,0
2021-07-11,0,0
2021-07-12,0,0
2021-07-13,0,0
2021-07-14,0,0
2021-07-15,0,0
2021-07-16,0,0
2021-07-17,0,0
2021-07-18,0,0
2021-07-19,0,0
2021-07-20,0,0
2021-07-21,0,0
2021-07-22,0,0
2021-07-23,0,0
2021-07-24,0,0
2021-07-25,0,0
2021-07-26,0,0
2021-07-27,0,0
2021-07-28,0,0
2021-07-29,0,0
2021-07-30,0,0
2021-07-31,0,0
2021-08-01,0,0
2021-08-02,0,0
2021-08-03,0,0
2021-08-04,0,0
2021-08-05,0,0
2021-08-06,0,0
2021-08-07,0,0
2021-08-08,0,0
2021-08-09,0,0
2021-08-10,0,0
2021-08-11,0,0
2021-08-12,0,0
2021-08-13,0,0
2021-08-14,0,0
2021-08-15,0,0
2021-08-16,0,0
2021-08-17,0,0
2021-08-18,0,0
2021-08-19,0,0
2021-08-20,0,0
2021-08-21,0,0
2021-08-22,0,0
2021-08-23,0,0
2021-08-24,0,0
2021-08-25,0,0
2021-08-26,0,0
2021-08-27,0,0
2021-08-28,0,0
2021-08-29,0,0
2021-08-30,0,0
2021-08-31,0,0
2021-09-01,0,0
2021-09-02,0,0
2021-09-03,0,0
2021-09-04,0,0
2021-09-05,0,0
2021-09-06,0,0
2021-09-07,0,0
2021-09-08,0,0
2021-09-09,0,0
2021-09-10,0,0
2021-09-11,0,0
2021-09-12,0,0
2021-09-13,0,0
2021-09-14,0,0
2021-09-15,0,0
2021-09-16,0,0
2021-09-17,0,0
2021-09-18,0,0
2021-09-19,0,0
2021-09-20,0,0
2021-09-21,0,0
2021-09-22,0,0
2021-09-23,0,0
2021-09-24,0,0
2021-09-25,0,0
2021-09-26,1,0
2021-09-27,0,0
2021-09-28,0,0
2021-09-29,0,0
2021-09-30,0,0
2021-10-01,0,0
2021-10-02,0,0
2021-10-03,0,0
2021-10-04,0,0
2021-10-05,0,0
2021-10-06,0,0
2021-10-07,0,0
2021-10-08,0,0
2021-10-09,0,0
2021-10-10,0,0
2021-10-11,0,0
2021-10-12,0,0
2021-10-13,1,0
2021-10-14,0,1
2021-10-15,0,0
2021-10-16,0,1
2021-10-17,0,0
2021-10-18,0,0
2021-10-19,0,0
2021-10-20,1,0
2021-10-21,0,1
2021-10-22,0,0
2021-10-23,0,0
2021-10-24,0,0
2021-10-25,0,0
2021-10-26,0,0
2021-10-27,0,0
2021-10-28,1,0
2021-10-29,0,0
2021-10-30,1,0
2021-10-31,0,0
2021-11-01,0,0
2021-11-02,0,0
2021-11-03,0,0
2021-11-04,0,0
2021-11-05,0,0
2021-11-06,0,0
2021-11-07,0,0
2021-11-08,0,0
2021-11-09,0,0
2021-11-10,0,0
2021-11-11,0,0
2021-11-12,0,0
2021-11-13,0,0
2021-11-14,0,0
2021-11-15,1,0
2021-11-16,0,1
2021-11-17,0,0
2021-11-18,0,0
2021-11-19,0,0
2021-11-20,0,0
2021-11-21,0,0
2021-11-22,0,1
2021-11-23,1,0
2021-11-24,0,0
2021-11-25,0,0
2021-11-26,0,0
2021-11-27,0,0
2021-11-28,0,1
2021-11-29,1,0
2021-11-30,0,0
2021-12-01,0,0
2021-12-02,0,0
2021-12-03,0,0
2021-12-04,0,0
2021-12-05,0,0
2021-12-06,0,0
2021-12-07,0,0
2021-12-08,0,0
2021-12-09,0,0
2021-12-10,0,0
2021-12-11,0,0
2021-12-12,0,0
2021-12-13,0,0
2021-12-14,0,0
2021-12-15,0,0
2021-12-16,0,0
2021-12-17,0,0
2021-12-18,0,0
2021-12-19,0,0
2021-12-20,0,0
2021-12-21,0,0
2021-12-22,0,0
2021-12-23,0,1
2021-12-24,1,0
2021-12-25,0,0
2021-12-26,0,0
2021-12-27,1,0
2021-12-28,0,0
2021-12-29,0,0
2021-12-30,0,0
2021-12-31,0,0
2022-01-01,2,0
2022-01-02,0,0
2022-01-03,0,0
2022-01-04,0,0
2022-01-05,0,0
2022-01-06,0,0
2022-01-07,0,0
2022-01-08,0,0
2022-01-09,0,0
2022-01-10,0,0
2022-01-11,0,0
2022-01-12,0,0
2022-01-13,0,0
2022-01-14,0,0
2022-01-15,0,0
2022-01-16,0,0
2022-01-17,0,0
2022-01-18,0,0
2022-01-19,0,0
2022-01-20,0,0
2022-01-21,0,0
2022-01-22,0,0
2022-01-23,0,0
2022-01-24,0,0
2022-01-25,0,0
2022-01-26,0,0
2022-01-27,0,0
2022-01-28,0,0
2022-01-29,0,0
2022-01-30,0,0
2022-01-31,0,0
2022-02-01,0,0
2022-02-02,0,0
2022-02-03,0,0
2022-02-04,0,0
2022-02-05,0,0
2022-02-06,2,0
2022-02-07,0,0
2022-02-08,1,0
2022-02-09,1,0
2022-02-10,0,0
2022-02-11,2,0
2022-02-12,1,0
2022-02-13,0,0
2022-02-14,1,0
2022-02-15,1,0
2022-02-16,1,0
2022-02-17,0,0
2022-02-18,1,0
2022-02-19,0,0
2022-02-20,0,0
2022-02-21,1,0
2022-02-22,0,0
2022-02-23,0,0
2022-02-24,0,0
2022-02-25,0,0
2022-02-26,0,0
2022-02-27,0,0
2022-02-28,0,0
2022-03-01,0,0
2022-03-02,0,0
2022-03-03,0,0
2022-03-04,0,0
2022-03-05,0,0
2022-03-06,0,0
2022-03-07,0,0
2022-03-08,0,0
2022-03-09,0,0
2022-03-10,0,0
2022-03-11,0,0
2022-03-12,0,0
2022-03-13,0,0
2022-03-14,0,0
2022-03-15,0,0
2022-03-16,0,0
2022-03-17,0,0
2022-03-18,0,0
2022-03-19,0,0
2022-03-20,0,0
2022-03-21,0,0
2022-03-22,0,0
2022-03-23,0,0
2022-03-24,0,0
2022-03-25,0,0
2022-03-26,0,0
2022-03-27,0,0
2022-03-28,0,0
2022-03-29,0,0
2022-03-30,0,0
2022-03-31,0,0
2022-04-01,0,0
2022-04-02,0,0
2022-04-03,0,0
2022-04-04,0,0
2022-04-05,0,0
2022-04-06,0,0
2022-04-07,0,0
2022-04-08,0,0
2022-04-09,0,0
2022-04-10,0,0
2022-04-11,0,0
2022-04-12,0,0
2022-04-13,0,0
2022-04-14,0,0
2022-04-15,0,0
2022-04-16,0,0
2022-04-17,0,0
2022-04-18,0,0
2022-04-19,0,0
2022-04-20,0,0
2022-04-21,0,0
2022-04-22,0,0
2022-04-23,0,0
2022-04-24,0,0
2022-04-25,0,0
2022-04-26,0,0
2022-04-27,0,0
2022-04-28,0,0
2022-04-29,0,0
2022-04-30,0,0
2022-05-01,0,0
2022-05-02,0,0
2022-05-03,0,0
2022-05-04,0,0
2022-05-05,0,0
2022-05-06,0,0
2022-05-07,0,0
2022-05-08,0,0
2022-05-09,0,0
2022-05-10,0,0
2022-05-11,0,0
2022-05-12,0,0
2022-05-13,0,0
2022-05-14,0,0
2022-05-15,0,0
2022-05-16,0,0
2022-05-17,0,0
2022-05-18,0,0
2022-05-19,0,0
2022-05-20,0,0
2022-05-21,0,0
2022-05-22,0,0
2022-05-23,0,0
2022-05-24,0,1
2022-05-25,0,0
2022-05-26,0,0
2022-05-27,0,0
2022-05-28,0,0
2022-05-29,0,0
2022-05-30,1,1
2022-05-31,0,0
2022-06-01,0,0
2022-06-02,0,0
2022-06-03,0,0
2022-06-04,0,0
2022-06-05,0,0
2022-06-06,0,0
2022-06-07,0,0
2022-06-08,0,0
2022-06-09,0,0
2022-06-10,0,0
2022-06-11,0,0
2022-06-12,0,0
2022-06-13,0,0
2022-06-14,0,0
2022-06-15,0,0
2022-06-16,0,0
2022-06-17,0,0
2022-06-18,0,0
2022-06-19,0,0
2022-06-20,0,0
2022-06-21,0,0
2022-06-22,0,0
2022-06-23,0,0
2022-06-24,0,0
2022-06-25,0,0
2022-06-26,0,0
2022-06-27,0,0
2022-06-28,0,0
2022-06-29,0,0
2022-06-30,0,0
2022-07-01,0,0
2022-07-02,0,0
2022-07-03,0,0
2022-07-04,0,0
2022-07-05,0,0
2022-07-06,0,0
2022-07-07,0,0
2022-07-08,0,0
2022-07-09,0,0
2022-07-10,0,0
2022-07-11,0,0
2022-07-12,0,0
2022-07-13,0,0
2022-07-14,0,0
2022-07-15,0,0
2022-07-16,0,0
2022-07-17,0,0
2022-07-18,0,0
2022-07-19,0,0
2022-07-20,0,0
2022-07-21,0,0
2022-07-22,0,0
2022-07-23,0,0
2022-07-24,1,0
2022-07-25,0,0
2022-07-26,0,0
2022-07-27,0,0
2022-07-28,0,0
2022-07-29,0,0
2022-07-30,0,0
2022-07-31,0,0
2022-08-01,0,0
2022-08-02,0,0
2022-08-03,0,0
2022-08-04,0,0
2022-08-05,0,0
2022-08-06,0,0
2022-08-07,0,0
2022-08-08,0,0
2022-08-09,0,0
2022-08-10,0,0
2022-08-11,0,0
2022-08-12,0,0
2022-08-13,0,0
2022-08-14,0,0
2022-08-15,0,0
2022-08-16,0,0
2022-08-17,0,0
2022-08-18,0,0
2022-08-19,0,0
2022-08-20,0,0
2022-08-21,0,0
2022-08-22,0,0
2022-08-23,0,0
2022-08-24,0,0
2022-08-25,0,0
2022-08-26,0,0
2022-08-27,0,0
2022-08-28,0,0
2022-08-29,0,0
2022-08-30,0,0
2022-08-31,0,0
2022-09-01,0,0
2022-09-02,1,0
2022-09-03,0,1
2022-09-04,1,1
2022-09-05,3,0
2022-09-06,0,0
2022-09-07,0,0
2022-09-08,0,0
2022-09-09,0,0
2022-09-10,0,0
2022-09-11,0,0
2022-09-12,0,0
2022-09-13,0,1
2022-09-14,0,0
2022-09-15,0,0
2022-09-16,0,0
2022-09-17,1,0
2022-09-18,0,0
2022-09-19,0,0
2022-09-20,0,0
2022-09-21,0,1
2022-09-22,0,0
2022-09-23,1,0
2022-09-24,0,0
2022-09-25,0,0
2022-09-26,0,0
2022-09-27,0,0
2022-09-28,0,1
2022-09-29,0,0
2022-09-30,1,0
2022-10-01,0,0
2022-10-02,0,0
2022-10-03,0,1
2022-10-04,0,0
2022-10-05,0,0
2022-10-06,0,0
2022-10-07,0,0
2022-10-08,1,0
2022-10-09,0,0
2022-10-10,0,1
2022-10-11,0,0
2022-10-12,0,0
2022-10-13,0,0
2022-10-14,0,0
2022-10-15,0,1
2022-10-16,1,0
2022-10-17,0,0
2022-10-18,0,0
2022-10-19,0,0
2022-10-20,0,1
2022-10-21,0,0
2022-10-22,0,0
2022-10-23,0,0
2022-10-24,0,0
2022-10-25,0,0
2022-10-26,0,0
2022-10-27,0,0
2022-10-28,0,0
2022-10-29,0,0
2022-10-30,0,0
2022-10-31,0,0
2022-11-01,0,0
2022-11-02,0,0
2022-11-03,0,0
2022-11-04,2,0
2022-11-05,0,0
2022-11-06,0,0
2022-11-07,0,0
2022-11-08,0,0
2022-11-09,0,0
2022-11-10,0,0
2022-11-11,0,0
2022-11-12,0,0
2022-11-13,0,0
2022-11-14,0,0
2022-11-15,0,0
2022-11-16,0,0
2022-11-17,0,0
2022-11-18,0,0
2022-11-19,0,0
2022-11-20,0,0
2022-11-21,0,0
2022-11-22,0,0
2022-11-23,0,0
2022-11-24,0,0
2022-11-25,0,0
2022-11-26,0,0
2022-11-27,0,0
2022-11-28,0,0
2022-11-29,0,0
2022-11-30,0,0
2022-12-01,0,0
2022-12-02,0,0
2022-12-03,0,0
2022-12-04,0,0
2022-12-05,0,0
2022-12-06,1,0
2022-12-07,0,0
2022-12-08,0,0
2022-12-09,0,0
2022-12-10,0,0
2022-12-11,0,0
2022-12-12,0,1
2022-12-13,0,0
2022-12-14,0,0
2022-12-15,0,0
2022-12-16,0,0
2022-12-17,0,0
2022-12-18,0,0
2022-12-19,0,1
2022-12-20,0,0
2022-12-21,0,0
2022-12-22,0,0
2022-12-23,0,0
2022-12-24,0,0
2022-12-25,0,1
2022-12-26,0,1
2022-12-27,0,0
2022-12-28,0,0
2022-12-29,0,0
2022-12-30,0,1
2022-12-31,1,0
2023-01-01,0,0
2023-01-02,0,0
2023-01-03,0,0
2023-01-04,0,0
2023-01-05,0,1
2023-01-06,2,0
2023-01-07,2,0
2023-01-08,0,0
2023-01-09,0,0
2023-01-10,0,0
2023-01-11,0,1
2023-01-12,0,0
2023-01-13,2,0
2023-01-14,1,0
2023-01-15,2,0
2023-01-16,0,0
2023-01-17,0,0
2023-01-18,0,1
2023-01-19,0,0
2023-01-20,0,0
2023-01-21,1,0
2023-01-22,2,0
2023-01-23,0,0
2023-01-24,1,0
2023-01-25,0,0
2023-01-26,0,1
2023-01-27,0,0
2023-01-28,1,0
2023-01-29,0,0
2023-01-30,1,0
2023-01-31,0,0
2023-02-01,0,0
2023-02-02,1,0
2023-02-03,0,0
2023-02-04,2,0
2023-02-05,0,0
2023-02-06,0,0
2023-02-07,0,0
2023-02-08,1,0
2023-02-09,0,0
2023-02-10,0,0
2023-02-11,0,0
2023-02-12,0,0
2023-02-13,1,0
2023-02-14,0,0
2023-02-15,0,0
2023-02-16,0,0
2023-02-17,0,0
2023-02-18,0,0
2023-02-19,1,0
2023-02-20,0,1
2023-02-21,1,0
2023-02-22,0,0
2023-02-23,0,0
2023-02-24,0,0
2023-02-25,0,0
2023-02-26,0,0
2023-02-27,0,0
2023-02-28,0,0
2023-03-01,0,0
2023-03-02,0,0
2023-03-03,0,0
2023-03-04,0,0
2023-03-05,0,0
2023-03-06,0,0
2023-03-07,0,0
2023-03-08,0,0
2023-03-09,0,0
2023-03-10,0,0
2023-03-11,0,0
2023-03-12,0,0
2023-03-13,0,0
2023-03-14,0,0
2023-03-15,0,0
2023-03-16,0,0
2023-03-17,0,0
2023-03-18,0,0
2023-03-19,0,0
2023-03-20,0,0
2023-03-21,0,0
2023-03-22,0,0
2023-03-23,0,0
2023-03-24,0,0
2023-03-25,0,0
2023-03-26,0,0
2023-03-27,0,0
2023-03-28,0,0
2023-03-29,0,0
2023-03-30,0,0
2023-03-31,0,0
2023-04-01,0,0
2023-04-02,0,0
2023-04-03,0,0
2023-04-04,0,0
2023-04-05,0,0
2023-04-06,0,0
2023-04-07,0,0
2023-04-08,0,0
2023-04-09,0,0
2023-04-10,0,0
2023-04-11,2,0
2023-04-12,0,0
2023-04-13,0,2
2023-04-14,0,0
2023-04-15,0,0
2023-04-16,2,0
2023-04-17,0,0
2023-04-18,0,0
2023-04-19,0,0
2023-04-20,0,0
2023-04-21,0,0
2023-04-22,0,0
2023-04-23,0,0
2023-04-24,0,0
2023-04-25,0,0
2023-04-26,0,0
2023-04-27,0,0
2023-04-28,0,0
2023-04-29,0,0
2023-04-30,0,0
2023-05-01,0,0
2023-05-02,0,0
2023-05-03,0,0
2023-05-04,0,0
2023-05-05,0,0
2023-05-06,0,0
2023-05-07,0,0
2023-05-08,0,0
2023-05-09,0,0
2023-05-10,0,0
2023-05-11,0,0
2023-05-12,0,0
2023-05-13,0,0
2023-05-14,0,0
2023-05-15,0,0
2023-05-16,0,0
2023-05-17,0,0
2023-05-18,0,0
2023-05-19,0,0
2023-05-20,0,0
2023-05-21,3,1
2023-05-22,28,0
2023-05-23,23,0
2023-05-24,29,0
2023-05-25,25,0
2023-05-26,1,0
2023-05-27,1,0
2023-05-28,0,0
2023-05-29,0,0
2023-05-30,0,0
2023-05-31,0,0
2023-06-01,1,0
2023-06-02,0,0
2023-06-03,0,0
2023-06-04,0,0
2023-06-05,1,0
2023-06-06,1,0
2023-06-07,0,0
2023-06-08,0,0
2023-06-09,0,0
2023-06-10,0,0
2023-06-11,0,0
2023-06-12,1,0
2023-06-13,0,0
2023-06-14,0,0
2023-06-15,0,0
2023-06-16,0,0
2023-06-17,1,0
2023-06-18,0,0
2023-06-19,0,0
2023-06-20,0,0
2023-06-21,0,0
2023-06-22,0,0
2023-06-23,0,0
2023-06-24,0,0
2023-06-25,0,0
2023-06-26,0,0
2023-06-27,0,0
2023-06-28,0,0
2023-06-29,0,0
2023-06-30,0,0
2023-07-01,0,0
2023-07-02,0,0
2023-07-03,2,0
2023-07-04,1,0
2023-07-05,0,0
2023-07-06,1,0
2023-07-07,1,0
2023-07-08,1,0
2023-07-09,1,0
2023-07-10,2,0
2023-07-11,0,0
2023-07-12,2,0
2023-07-13,0,0
2023-07-14,1,0
2023-07-15,1,0
2023-07-16,1,0
2023-07-17,1,0
2023-07-18,1,0
2023-07-19,2,0
2023-07-20,0,0
2023-07-21,3,0
2023-07-22,0,0
2023-07-23,13,0
2023-07-24,23,0
2023-07-25,24,0
2023-07-26,26,0
2023-07-27,22,0
2023-07-28,17,0
2023-07-29,9,0
2023-07-30,21,0
2023-07-31,18,0
2023-08-01,19,0
2023-08-02,18,0
2023-08-03,21,0
2023-08-04,30,0
2023-08-05,13,0
2023-08-06,37,0
2023-08-07,27,0
2023-08-08,14,0
2023-08-09,14,0
2023-08-10,27,0
2023-08-11,24,2
2023-08-12,12,0
2023-08-13,13,0
2023-08-14,26,0
2023-08-15,10,0
2023-08-16,25,0
2023-08-17,38,0
2023-08-18,49,0
2023-08-19,15,0
2023-08-20,9,0
2023-08-21,25,8
2023-08-22,28,0
2023-08-23,15,0
2023-08-24,30,0
2023-08-25,19,0
2023-08-26,19,0
2023-08-27,17,0
2023-08-28,13,0
2023-08-29,20,0
2023-08-30,35,0
2023-08-31,21,0
2023-09-01,28,0
2023-09-02,22,0
2023-09-03,20,0
2023-09-04,17,0
2023-09-05,33,0
2023-09-06,20,0
2023-09-07,43,0
2023-09-08,75,0
2023-09-09,10,0
2023-09-10,9,0
2023-09-11,20,0
2023-09-12,8,0
2023-09-13,29,0
2023-09-14,18,0
2023-09-15,11,0
2023-09-16,17,0
2023-09-17,13,0
2023-09-18,16,0
2023-09-19,7,0
2023-09-20,10,0
2023-09-21,20,0
2023-09-22,25,0
2023-09-23,16,0
2023-09-24,17,0
2023-09-25,31,0
2023-09-26,35,0
2023-09-27,28,0
2023-09-28,34,0
2023-09-29,31,0
2023-09-30,22,0
2023-10-01,35,0
2023-10-02,14,0
2023-10-03,17,0
2023-10-04,33,0
2023-10-05,20,0
2023-10-06,19,0
2023-10-07,16,0
2023-10-08,31,0
2023-10-09,19,0
2023-10-10,22,0
2023-10-11,32,0
2023-10-12,19,0
2023-10-13,18,0
2023-10-14,16,0
2023-10-15,17,0
2023-10-16,27,0
2023-10-17,24,0
2023-10-18,21,1
2023-10-19,31,0
2023-10-20,21,0
2023-10-21,16,1
2023-10-22,18,0
2023-10-23,19,0
2023-10-24,11,1
2023-10-25,15,0
2023-10-26,25,0
2023-10-27,18,0
2023-10-28,32,7
2023-10-29,18,0
2023-10-30,25,0
2023-10-31,29,0
2023-11-01,22,0
2023-11-02,18,0
2023-11-03,22,0
2023-11-04,11,0
2023-11-05,28,0
2023-11-06,27,0
2023-11-07,20,1
2023-11-08,42,0
2023-11-09,70,0
2023-11-10,48,0
2023-11-11,53,0
2023-11-12,30,0
2023-11-13,28,0
2023-11-14,39,0
2023-11-15,124,0
2023-11-16,19,0
2023-11-17,10,0
2023-11-18,23,0
2023-11-19,26,0
2023-11-20,36,0
2023-11-21,15,0
2023-11-22,22,1
2023-11-23,18,0
2023-11-24,22,0
2023-11-25,14,0
2023-11-26,34,0
2023-11-27,23,0
2023-11-28,35,0
2023-11-29,22,0
2023-11-30,27,0
2023-12-01,20,0
2023-12-02,27,0
2023-12-03,26,1
2023-12-04,31,0
2023-12-05,30,1
2023-12-06,19,0
2023-12-07,44,0
2023-12-08,20,0
2023-12-09,24,1
2023-12-10,21,0
2023-12-11,18,0
2023-12-12,31,0
2023-12-13,13,0
2023-12-14,35,0
2023-12-15,39,0
2023-12-16,15,0
2023-12-17,13,0
2023-12-18,19,0
2023-12-19,25,0
2023-12-20,20,0
2023-12-21,30,0
2023-12-22,10,0
2023-12-23,21,0
2023-12-24,8,0
2023-12-25,8,0
2023-12-26,18,0
2023-12-27,79,1
2023-12-28,53,0
2023-12-29,16,0
2023-12-30,13,0
2023-12-31,1,0
2024-01-01,1,0
2024-01-02,1,0
2024-01-03,0,0
2024-01-04,1,0
2024-01-05,0,0
2024-01-06,0,0
2024-01-07,1,0
2024-01-08,0,0
2024-01-09,0,0
2024-01-10,0,0
2024-01-11,0,0
2024-01-12,0,0
2024-01-13,0,0
2024-01-14,0,0
2024-01-15,0,0
2024-01-16,1,0
2024-01-17,0,0
2024-01-18,3,0
2024-01-19,2,1
2024-01-20,0,0
2024-01-21,0,0
2024-01-22,0,0
2024-01-23,1,0
2024-01-24,0,0
2024-01-25,0,0
2024-01-26,0,0
2024-01-27,0,0
2024-01-28,0,0
2024-01-29,0,0
2024-01-30,0,0
2024-01-31,0,0
2024-02-01,1,0
2024-02-02,2,0
2024-02-03,0,0
2024-02-04,0,0
2024-02-05,0,0
2024-02-06,0,0
2024-02-07,0,0
2024-02-08,0,0
2024-02-09,0,0
2024-02-10,0,0
2024-02-11,0,0
2024-02-12,0,0
2024-02-13,0,0
2024-02-14,1,0
2024-02-15,1,0
2024-02-16,0,0
2024-02-17,0,1
2024-02-18,0,0
2024-02-19,1,0
2024-02-20,0,0
2024-02-21,3,0
2024-02-22,1,0
2024-02-23,0,0
2024-02-24,0,0
2024-02-25,0,0
2024-02-26,0,1
2024-02-27,0,0
2024-02-28,3,0
2024-02-29,0,0
2024-03-01,0,0
2024-03-02,1,1
2024-03-03,0,0
2024-03-04,1,1
2024-03-05,1,0
2024-03-06,0,0
2024-03-07,1,1
2024-03-08,0,0
2024-03-09,0,0
2024-03-10,0,0
2024-03-11,0,0
2024-03-12,0,0
2024-03-13,0,0
2024-03-14,1,1
2024-03-15,0,0
2024-03-16,0,0
2024-03-17,0,0
2024-03-18,13,0
2024-03-19,26,0
2024-03-20,37,2
2024-03-21,30,1
2024-03-22,20,0
2024-03-23,10,0
2024-03-24,12,0
2024-03-25,28,0
2024-03-26,15,0
2024-03-27,39,0
2024-03-28,16,0
2024-03-29,5,0
